VE6CPK-13 Weather Reports


Display with metric or nautical units.
time (UTC)temp
F
wind
direction
speed
MPH
gust
MPH
rain 1hr
in
rain 24hr
in
rain mn
in
humidity
%
barometer
mb
20260503175047 68 12 1.0 9.0 0.00 0.00 0.00 26 1005.6
20260503174547 68 20 1.0 9.0 0.00 0.00 0.00 26 1005.8
20260503174051 68 10 1.0 9.0 0.00 0.00 0.00 27 1005.9
20260503173551 68 16 2.0 9.0 0.00 0.00 0.00 27 1005.9
20260503173051 68 357 2.0 9.0 0.00 0.00 0.00 26 1006.0
20260503172550 68 23 0.0 9.0 0.00 0.00 0.00 27 1006.1
20260503172050 68 13 1.0 6.0 0.00 0.00 0.00 27 1006.1
20260503171550 67 5 1.0 6.0 0.00 0.00 0.00 27 1006.1
20260503171050 67 69 0.0 5.0 0.00 0.00 0.00 28 1006.1
20260503170550 67 27 1.0 5.0 0.00 0.00 0.00 27 1006.1
20260503150551 55 167 0.0 2.0 0.00 0.00 0.00 41 1007.1
20260503131050 48 132 0.0 2.0 0.00 0.00 0.00 43 1007.5
20260503130550 48 132 0.0 2.0 0.00 0.00 0.00 44 1007.5
20260503110718 49 126 0.0 2.0 0.00 0.00 0.00 42 1007.9
20260503110219 49 126 0.0 2.0 0.00 0.00 0.00 42 1007.9
20260503100218 50 123 0.0 2.0 0.00 0.00 0.00 40 1008.0
20260503090219 51 120 0.0 2.0 0.00 0.00 0.00 39 1007.8
20260503081219 53 120 0.0 2.0 0.00 0.00 0.00 36 1007.8
20260503080718 53 120 0.0 2.0 0.00 0.00 0.00 37 1007.8
20260503080217 53 186 0.0 2.0 0.00 0.00 0.00 36 1007.7
20260503072719 54 174 0.0 1.0 0.00 0.00 0.00 36 1008.1
20260503072218 54 174 0.0 1.0 0.00 0.00 0.00 35 1008.0
20260503071717 54 174 0.0 1.0 0.00 0.00 0.00 35 1008.0
20260503071219 54 174 0.0 1.0 0.00 0.00 0.00 35 1008.0
20260503070718 54 174 0.0 1.0 0.00 0.00 0.00 36 1007.9
20260503070217 54 174 0.0 1.0 0.00 0.00 0.00 35 1007.9
20260503060219 55 176 0.0 0.0 0.00 0.00 0.00 35 1007.9
20260503054717 55 175 0.0 7.0 0.00 0.00 0.00 35 1007.9
20260503054219 55 175 0.0 7.0 0.00 0.00 0.00 35 1007.8
20260503053717 55 175 0.0 7.0 0.00 0.00 0.00 35 1007.8
20260503053217 55 175 0.0 7.0 0.00 0.00 0.00 35 1007.8
20260503052717 55 175 0.0 7.0 0.00 0.00 0.00 36 1007.8
20260503052218 55 175 0.0 7.0 0.00 0.00 0.00 35 1007.7
20260503051718 55 175 0.0 7.0 0.00 0.00 0.00 36 1007.7
20260503051218 55 175 0.0 7.0 0.00 0.00 0.00 35 1007.7
20260503050719 55 175 0.0 7.0 0.00 0.00 0.00 35 1007.6
20260503050218 55 175 0.0 7.0 0.00 0.00 0.00 36 1007.6
20260503045717 55 175 0.0 7.0 0.00 0.00 0.00 36 1007.6
20260503045218 55 175 0.0 7.0 0.00 0.00 0.00 36 1007.6
20260503044718 55 175 0.0 7.0 0.00 0.00 0.00 36 1007.5
20260503044218 55 175 0.0 7.0 0.00 0.00 0.00 38 1007.5
20260503043717 55 175 0.0 7.0 0.00 0.00 0.00 38 1007.6
20260503043218 55 175 0.0 7.0 0.00 0.00 0.00 38 1007.5
20260503042718 56 175 0.0 7.0 0.00 0.00 0.00 38 1007.5
20260503042217 56 175 0.0 7.0 0.00 0.00 0.00 40 1007.5
20260503041718 56 175 0.0 7.0 0.00 0.00 0.00 41 1007.5
20260503041217 56 175 0.0 7.0 0.00 0.00 0.00 45 1007.4
20260503040718 57 175 0.0 7.0 0.00 0.00 0.00 48 1007.3
20260503040218 57 175 0.0 7.0 0.00 0.00 0.00 47 1007.3
20260503035717 57 175 0.0 7.0 0.00 0.00 0.00 47 1007.2
20260503035217 57 175 0.0 7.0 0.00 0.00 0.00 49 1007.2
20260503034718 58 174 0.0 7.0 0.00 0.00 0.00 49 1007.2
20260503034218 58 174 0.0 7.0 0.00 0.00 0.00 49 1007.1
20260503033717 58 174 0.0 7.0 0.00 0.00 0.00 48 1007.1
20260503033219 59 174 0.0 7.0 0.00 0.00 0.00 48 1007.1
20260503032717 59 174 0.0 7.0 0.00 0.00 0.00 47 1007.1
20260503032217 59 174 0.0 7.0 0.00 0.00 0.00 47 1007.0
20260503031717 60 172 0.0 7.0 0.00 0.00 0.00 46 1007.0
20260503031217 60 173 0.0 7.0 0.00 0.00 0.00 45 1007.0
20260503030717 61 173 0.0 7.0 0.00 0.00 0.00 44 1006.9
20260503030217 61 173 0.0 7.0 0.00 0.00 0.00 41 1006.9
20260503025717 61 173 0.0 7.0 0.00 0.00 0.00 40 1006.9
20260503025217 61 173 0.0 7.0 0.00 0.00 0.00 40 1006.8
20260503024717 61 173 0.0 7.0 0.00 0.00 0.00 45 1006.9
20260503024217 61 173 0.0 7.0 0.00 0.00 0.00 44 1006.8
20260503023717 61 173 0.0 7.0 0.00 0.00 0.00 44 1006.9
20260503023216 62 173 0.0 7.0 0.00 0.00 0.00 43 1006.9
20260503022716 62 173 1.0 7.0 0.00 0.00 0.00 42 1006.7
20260503022216 62 175 1.0 7.0 0.00 0.00 0.00 41 1006.9
20260503021718 62 166 1.0 7.0 0.00 0.00 0.00 41 1006.9
20260503021218 63 167 0.0 7.0 0.00 0.00 0.00 41 1006.9
20260503020718 63 167 0.0 7.0 0.00 0.00 0.00 40 1007.0
20260503020218 63 178 0.0 7.0 0.00 0.00 0.00 40 1006.9
20260503015717 64 171 0.0 7.0 0.00 0.00 0.00 38 1007.0
20260503015217 64 170 0.0 7.0 0.00 0.00 0.00 37 1007.1
20260503014717 64 126 0.0 7.0 0.00 0.00 0.00 36 1007.1
20260503014217 64 171 0.0 7.0 0.00 0.00 0.00 36 1007.1
20260503013717 65 171 0.0 7.0 0.00 0.00 0.00 35 1007.1
20260503013217 65 174 0.0 7.0 0.00 0.00 0.00 34 1007.1
20260503012716 65 175 0.0 7.0 0.00 0.00 0.00 34 1007.2
20260503012216 65 174 0.0 7.0 0.00 0.00 0.00 35 1007.3
20260503011718 65 174 0.0 7.0 0.00 0.00 0.00 34 1007.3
20260503011218 65 173 0.0 7.0 0.00 0.00 0.00 33 1007.4
20260503010718 66 174 0.0 7.0 0.00 0.00 0.00 31 1007.3
20260503010218 66 167 0.0 7.0 0.00 0.00 0.00 33 1007.4
20260503005718 66 169 0.0 7.0 0.00 0.00 0.00 33 1007.4
20260503005217 66 190 0.0 7.0 0.00 0.00 0.00 33 1007.5
20260503004717 66 198 1.0 7.0 0.00 0.00 0.00 32 1007.5
20260503004217 66 179 0.0 7.0 0.00 0.00 0.00 33 1007.6
20260503003717 66 180 1.0 7.0 0.00 0.00 0.00 34 1007.6
20260503003217 66 182 0.0 7.0 0.00 0.00 0.00 34 1007.6
20260503002717 66 182 1.0 7.0 0.00 0.00 0.00 34 1007.6
20260503002217 66 172 0.0 7.0 0.00 0.00 0.00 34 1007.8
20260503001717 66 173 0.0 7.0 0.00 0.00 0.00 34 1007.8
20260503001217 67 171 1.0 7.0 0.00 0.00 0.00 34 1007.9
20260503000717 67 172 1.0 7.0 0.00 0.00 0.00 34 1007.9
20260503000218 67 165 1.0 7.0 0.00 0.00 0.00 35 1007.8
20260502235717 67 178 0.0 7.0 0.00 0.00 0.00 35 1007.9
20260502235217 67 174 1.0 7.0 0.00 0.00 0.00 35 1008.0
20260502234717 67 169 0.0 7.0 0.00 0.00 0.00 36 1008.0
20260502234217 66 170 1.0 7.0 0.00 0.00 0.00 35 1008.1
20260502233716 66 169 0.0 7.0 0.00 0.00 0.00 35 1008.1
20260502233216 66 175 1.0 7.0 0.00 0.00 0.00 35 1008.2
20260502232716 66 179 1.0 7.0 0.00 0.00 0.00 35 1008.3
20260502232218 67 177 2.0 7.0 0.00 0.00 0.00 35 1008.4
20260502231718 67 172 0.0 7.0 0.00 0.00 0.00 35 1008.4
20260502231218 67 205 2.0 7.0 0.00 0.00 0.00 35 1008.6
20260502230717 67 159 0.0 7.0 0.00 0.00 0.00 35 1008.6
20260502230217 67 183 1.0 7.0 0.00 0.00 0.00 35 1008.7
20260502225717 67 176 1.0 7.0 0.00 0.00 0.00 36 1008.7
20260502225217 67 172 0.0 7.0 0.00 0.00 0.00 36 1008.9
20260502224717 67 167 2.0 7.0 0.00 0.00 0.00 35 1008.9
20260502224217 66 175 0.0 7.0 0.00 0.00 0.00 36 1008.9
20260502223717 66 185 1.0 7.0 0.00 0.00 0.00 36 1009.1
20260502223217 66 178 1.0 7.0 0.00 0.00 0.00 36 1009.2
20260502222716 66 188 0.0 7.0 0.00 0.00 0.00 36 1009.2
20260502222216 66 151 0.0 7.0 0.00 0.00 0.00 35 1009.3
20260502221716 66 191 1.0 7.0 0.00 0.00 0.00 36 1009.4
20260502221216 66 160 0.0 7.0 0.00 0.00 0.00 36 1009.5
20260502220716 66 174 1.0 7.0 0.00 0.00 0.00 36 1009.6
20260502220216 66 172 1.0 7.0 0.00 0.00 0.00 37 1009.7
20260502215716 66 169 1.0 7.0 0.00 0.00 0.00 37 1009.7
20260502215216 65 163 1.0 7.0 0.00 0.00 0.00 37 1009.7
20260502214716 65 181 0.0 7.0 0.00 0.00 0.00 37 1009.8
20260502214215 65 355 1.0 7.0 0.00 0.00 0.00 37 1009.9
20260502213717 65 169 2.0 7.0 0.00 0.00 0.00 38 1010.0
20260502213217 65 186 0.0 7.0 0.00 0.00 0.00 38 1010.0
20260502212717 65 169 1.0 7.0 0.00 0.00 0.00 38 1010.1
20260502212217 65 168 1.0 7.0 0.00 0.00 0.00 39 1010.1
20260502211717 65 166 0.0 7.0 0.00 0.00 0.00 39 1010.2
20260502211217 64 184 0.0 7.0 0.00 0.00 0.00 40 1010.3
20260502210717 63 173 0.0 7.0 0.00 0.00 0.00 41 1010.4
20260502210217 63 162 1.0 7.0 0.00 0.00 0.00 41 1010.5
20260502205717 63 180 0.0 7.0 0.00 0.00 0.00 39 1010.5
20260502205217 63 180 0.0 7.0 0.00 0.00 0.00 39 1010.6
20260502204717 64 191 0.0 7.0 0.00 0.00 0.00 40 1010.7
20260502204216 64 173 2.0 7.0 0.00 0.00 0.00 40 1010.7
20260502203716 64 316 1.0 7.0 0.00 0.00 0.00 39 1010.7
20260502203216 64 167 0.0 7.0 0.00 0.00 0.00 39 1010.9
20260502202716 64 175 1.0 7.0 0.00 0.00 0.00 40 1010.9
20260502202215 64 336 0.0 7.0 0.00 0.00 0.00 39 1011.0
20260502201715 64 186 1.0 7.0 0.00 0.00 0.00 40 1011.1
20260502201217 63 38 0.0 7.0 0.00 0.00 0.00 39 1011.1
20260502200717 63 173 0.0 7.0 0.00 0.00 0.00 40 1011.2
20260502200217 63 180 2.0 7.0 0.00 0.00 0.00 42 1011.3
20260502195717 63 169 0.0 7.0 0.00 0.00 0.00 40 1011.4
20260502195217 63 167 0.0 7.0 0.00 0.00 0.00 39 1011.5
20260502194717 64 168 0.0 7.0 0.00 0.00 0.00 40 1011.6
20260502194216 64 171 0.0 7.0 0.00 0.00 0.00 40 1011.7
20260502193716 64 170 0.0 7.0 0.00 0.00 0.00 40 1011.8
20260502193216 64 175 1.0 7.0 0.00 0.00 0.00 39 1011.8
20260502192716 64 180 1.0 6.0 0.00 0.00 0.00 40 1011.8
20260502192215 63 175 1.0 6.0 0.00 0.00 0.00 41 1011.9
20260502191715 63 175 0.0 6.0 0.00 0.00 0.00 40 1011.9
20260502191215 63 146 0.0 6.0 0.00 0.00 0.00 40 1012.0
20260502190715 63 177 2.0 6.0 0.00 0.00 0.00 41 1012.0
20260502190215 62 169 0.0 6.0 0.00 0.00 0.00 41 1012.1
20260502185715 62 179 2.0 6.0 0.00 0.00 0.00 43 1012.2
20260502185215 62 184 0.0 6.0 0.00 0.00 0.00 40 1012.3
20260502184716 62 208 1.0 6.0 0.00 0.00 0.00 41 1012.3
20260502184216 61 174 1.0 6.0 0.00 0.00 0.00 42 1012.5
20260502183716 61 180 0.0 6.0 0.00 0.00 0.00 42 1012.5
20260502183216 61 177 2.0 6.0 0.00 0.00 0.00 44 1012.5
20260502182716 61 196 2.0 6.0 0.00 0.00 0.00 43 1012.6
20260502182216 60 184 0.0 6.0 0.00 0.00 0.00 43 1012.7
20260502181716 60 186 0.0 6.0 0.00 0.00 0.00 43 1012.9
20260502181217 60 176 1.0 6.0 0.00 0.00 0.00 43 1013.0
20260502180716 60 18 0.0 6.0 0.00 0.00 0.00 43 1013.1
20260502180216 60 18 1.0 6.0 0.00 0.00 0.00 43 1013.1